Home > Weather > Ocala > Past weeks

Flag for USA Weather for the Past 2 Weeks in Ocala, Florida, USA

Now
86 °F

Partly sunny.


Feels Like: 87 °F
Forecast: 69 / 86 °F
Wind: 13 mph from West

Location: Ocala Municipal

Current Time: May 3, 2016 at 2:15:53 PM

Latest Report: May 3, 2016 at 12:50 PM


Visibility: 10 mi

Pressure: 29.94 "Hg

Humidity: 49%

Dew Point: 64 °F

Location of OcalaLocation

Historic Weather in Ocala — Graph

°F

Ocala Temperature Yesterday

Maximum temperature yesterday: 90 °F (at 1:50 PM)
Minimum temperature yesterday: 70 °F (at 6:35 AM)
Average temperature yesterday: 77 °F

High & Low Weather Summary for the Past Weeks

 TemperatureHumidityPressure
High91 °F (Apr 29, 4:50 PM)94% (Apr 20, 5:35 AM)30.25 "Hg (Apr 20, 5:35 AM)
Low50 °F (Apr 19, 4:55 AM)30% (Apr 18, 3:50 PM)29.87 "Hg (Apr 27, 4:50 PM)
Average72 °F68%30.02 "Hg
* Reported Apr 18 12:50 PM — May 3 12:50 PM, Ocala, Weather by CustomWeather, © 2016

Note: Actual official high and low records may vary slightly from our data, if they occured in-between our weather recording intervals... More about our weather records

Advertising

Ocala Weather History for the Previous 24 Hours

Scroll right to see more
 ConditionsComfort  
Time TempWeatherWind HumidityBarometerVisibility
12:50 PM
Tue, May 3
86 °FPartly sunny.13 mph49%29.94 "Hg10 mi
11:50 AM84 °FScattered clouds.12 mph55%29.95 "Hg10 mi
10:50 AM82 °FScattered clouds.10 mph62%29.96 "Hg10 mi
9:50 AM79 °FScattered clouds.10 mph70%29.97 "Hg10 mi
8:50 AM75 °FSunny.9 mph83%29.97 "Hg10 mi
7:50 AM70 °FSunny.5 mph88%29.96 "Hg7 mi
6:50 AM66 °FFog.No wind94%29.96 "Hg5 mi
6:35 AM68 °FClear.No wind88%29.95 "Hg4 mi
6:15 AM68 °FClear.3 mph88%29.95 "Hg1 mi
5:55 AM70 °FClear.No wind88%29.95 "Hg7 mi
5:15 AM70 °FClear.3 mph88%29.94 "Hg10 mi
4:55 AM70 °FClear.3 mph88%29.94 "Hg9 mi
4:35 AM70 °FClear.3 mph88%29.94 "Hg10 mi
4:15 AM70 °FClear.3 mph88%29.95 "Hg10 mi
3:55 AM70 °FClear.3 mph88%29.95 "Hg10 mi
3:35 AM70 °FClear.No wind88%29.95 "Hg10 mi
2:55 AM70 °FClear.No wind88%29.95 "Hg10 mi
2:35 AM72 °FClear.No wind83%29.95 "Hg10 mi
2:15 AM72 °FClear.No wind83%29.95 "Hg10 mi
1:35 AM73 °FPassing clouds.3 mph83%29.98 "Hg10 mi
12:55 AM73 °FPassing clouds.No wind83%30.00 "Hg10 mi
12:15 AM75 °FPassing clouds.No wind74%30.01 "Hg10 mi
11:55 PM
Mon, May 2
73 °FMostly cloudy.5 mph78%30.01 "Hg10 mi
11:35 PM73 °FPassing clouds.No wind78%30.01 "Hg10 mi
10:55 PM73 °FPassing clouds.5 mph78%30.00 "Hg10 mi
10:35 PM73 °FClear.3 mph78%29.99 "Hg10 mi
10:15 PM73 °FClear.5 mph78%30.00 "Hg10 mi
9:55 PM75 °FClear.No wind74%30.00 "Hg10 mi
9:15 PM79 °FClear.3 mph65%29.97 "Hg10 mi
8:35 PM81 °FScattered clouds.7 mph62%29.96 "Hg10 mi
8:15 PM81 °FSunny.3 mph62%29.96 "Hg10 mi
7:55 PM81 °FSunny.7 mph62%29.96 "Hg10 mi
6:50 PM84 °FScattered clouds.7 mph55%29.95 "Hg10 mi
5:50 PM88 °FPartly sunny.12 mph49%29.95 "Hg10 mi
4:50 PM90 °FScattered clouds.8 mph43%29.95 "Hg10 mi
3:50 PM90 °FPartly sunny.3 mph38%29.97 "Hg10 mi
2:50 PM90 °FPartly sunny.6 mph38%30.00 "Hg10 mi
Weather by CustomWeather, © 2016

See weather overviewHow to use our weather pages